Weather History for Manchester, NH

Change the Weather History Date:

Saturday, February 23, 2013

  Actual Average Record
Temperature  
Mean Temperature 33 °F -  
Max Temperature 36 °F 42 °F 58 °F (1990)
Min Temperature 30 °F 20 °F -15 °F (1963)
Degree Days  
Heating Degree Days 32    
Moisture  
Dew Point 27 °F    
Average Humidity 77    
Maximum Humidity 92    
Minimum Humidity 65    
Precipitation  
Precipitation 0.03 in - - ()
Snow  
Snow 0.00 in - - ()
Snow Depth 1.00 in    
Sea Level Pressure  
Sea Level Pressure 30.17 in    
Wind  
Wind Speed 3 mph (ESE)    
Max Wind Speed 12 mph    
Max Gust Speed -    
Visibility 8 miles    
Events Rain , Snow    
Averages and records for this station are not official NWS values.
T = Trace of Precipitation, MM = Missing Value Source: NWS Daily Summary

Daily Weather History Graph

Daily Weather History Graph

Search for Another Location

Airport:

Trip Planner

Search our weather history database for the weather conditions in past years. The results will help you decide how hot, cold, wet, or windy it might be!

Date:

Astronomy

Feb. 23, 2013 Rise Set
Actual Time 6:30 AM EST 5:27 PM EST
Civil Twilight 6:02 AM EST 5:56 PM EST
Nautical Twilight 5:29 AM EST 6:29 PM EST
Astronomical Twilight 4:56 AM EST 7:02 PM EST
Moon 3:33 PM EST (2/23) 4:53 AM EST (2/23)
Length of Visible Light 11h 54m
Length of Day
10h 56m
Waxing Gibbous, 95% of the Moon is Illuminated
Feb 23
Waxing Gibbous
Feb 25
Full
Mar 4
Last Quarter
Mar 11
New
Mar 19
First Quarter

Hourly Weather History & Observations

Time (EST) Temp. Windchill Dew Point Humidity Pressure Visibility Wind Dir Wind Speed Gust Speed Precip Events Conditions
12:53 AM 30.9 °F - 23.0 °F 72% 30.35 in 10.0 mi Calm Calm - N/A   Overcast
1:53 AM 30.9 °F - 23.0 °F 72% 30.34 in 10.0 mi Calm Calm - N/A   Overcast
2:53 AM 30.9 °F - 23.0 °F 72% 30.33 in 10.0 mi Calm Calm - N/A   Overcast
3:53 AM 30.9 °F - 23.0 °F 72% 30.31 in 10.0 mi Calm Calm - N/A   Overcast
4:53 AM 30.9 °F 27.5 °F 23.0 °F 72% 30.30 in 10.0 mi ESE 3.5 mph - N/A   Overcast
5:38 AM 30.2 °F 26.7 °F 23.0 °F 75% 30.24 in 10.0 mi ESE 3.5 mph - N/A   Overcast
5:53 AM 30.9 °F 27.5 °F 23.0 °F 72% 30.29 in 10.0 mi SE 3.5 mph - N/A   Overcast
6:41 AM 30.2 °F - 23.0 °F 75% 30.23 in 10.0 mi Calm Calm - N/A   Overcast
6:53 AM 30.9 °F - 23.0 °F 72% 30.29 in 10.0 mi Calm Calm - N/A   Overcast
7:19 AM 32.0 °F - 23.0 °F 69% 30.23 in 10.0 mi Calm Calm - N/A   Overcast
7:53 AM 32.0 °F - 23.0 °F 69% 30.29 in 10.0 mi Calm Calm - N/A   Overcast
8:53 AM 33.1 °F 27.7 °F 25.0 °F 72% 30.27 in 10.0 mi SE 5.8 mph - N/A   Overcast
9:00 AM 33.8 °F 27.7 °F 24.8 °F 70% 30.21 in 10.0 mi SE 6.9 mph - N/A   Overcast
9:35 AM 33.8 °F 27.0 °F 26.6 °F 75% 30.20 in 10.0 mi SE 8.1 mph - N/A   Overcast
9:53 AM 35.1 °F 28.6 °F 26.1 °F 70% 30.25 in 10.0 mi SSE 8.1 mph - N/A   Overcast
10:00 AM 35.6 °F 28.6 °F 24.8 °F 65% 30.19 in 10.0 mi SSE 9.2 mph - N/A   Overcast
10:15 AM 35.6 °F 27.5 °F 24.8 °F 65% 30.19 in 10.0 mi SSE 11.5 mph - N/A   Overcast
10:53 AM 35.1 °F 27.9 °F 26.1 °F 70% 30.23 in 10.0 mi SE 9.2 mph - N/A   Overcast
11:53 AM 36.0 °F 29.0 °F 26.1 °F 67% 30.20 in 10.0 mi South 9.2 mph - N/A   Overcast
12:30 PM 35.6 °F 29.2 °F 26.6 °F 70% 30.13 in 10.0 mi SSE 8.1 mph - N/A   Overcast
12:53 PM 36.0 °F 28.0 °F 26.1 °F 67% 30.17 in 10.0 mi SSE 11.5 mph - N/A   Overcast
1:53 PM 36.0 °F 30.3 °F 27.0 °F 70% 30.17 in 10.0 mi SE 6.9 mph - N/A   Overcast
2:53 PM 36.0 °F 29.0 °F 28.9 °F 76% 30.15 in 6.0 mi SE 9.2 mph - 0.00 in Snow Light Snow
3:53 PM 35.1 °F 32.2 °F 30.0 °F 82% 30.13 in 7.0 mi East 3.5 mph - 0.00 in Snow Light Snow
4:53 PM 35.1 °F 30.1 °F 30.0 °F 82% 30.12 in 10.0 mi East 5.8 mph - 0.00 in   Overcast
5:53 PM 36.0 °F 33.3 °F 30.0 °F 79% 30.11 in 9.0 mi SE 3.5 mph - 0.00 in Snow Light Snow
6:53 PM 34.0 °F 28.8 °F 30.0 °F 85% 30.09 in 6.0 mi ESE 5.8 mph - 0.00 in Rain , Snow Light Rain
7:33 PM 33.8 °F - 30.2 °F 87% 30.03 in 2.5 mi Calm Calm - 0.00 in Snow Light Snow
7:53 PM 34.0 °F 29.8 °F 30.9 °F 89% 30.08 in 4.0 mi ESE 4.6 mph - 0.00 in Snow Light Snow
8:53 PM 33.1 °F - 30.9 °F 92% 30.06 in 3.0 mi Calm Calm - 0.01 in Snow Light Snow
9:53 PM 33.1 °F 30.0 °F 30.9 °F 92% 30.04 in 6.0 mi NNE 3.5 mph - 0.00 in Rain , Snow Light Snow
10:29 PM 33.8 °F 28.6 °F 30.2 °F 87% 29.97 in 2.5 mi NNE 5.8 mph - 0.00 in Snow Light Snow
10:51 PM 33.8 °F 30.8 °F 30.2 °F 87% 29.96 in 1.5 mi NNE 3.5 mph - 0.01 in Snow Light Snow
10:53 PM 33.1 °F - 30.9 °F 92% 30.01 in 1.5 mi Calm Calm - 0.01 in Snow Light Snow
11:36 PM 33.8 °F 27.7 °F 30.2 °F 87% 29.94 in 3.0 mi NNE 6.9 mph - 0.01 in Snow Light Snow
11:53 PM 33.1 °F 26.1 °F 30.9 °F 92% 29.98 in 3.0 mi NNE 8.1 mph - 0.01 in Snow Light Snow